Miscellaneous Local Product
Issued by NWS Hastings, NE

Home | Current Version | Previous Version | Text Only | Print | Product List | Glossary On
Versions: 1 2 3 4 5 6 7 8 9 10 11 12 13 14 15 16 17 18 19 20 21 22 23 24 25 26 27 28 29 30 31 32 33 34 35 36 37 38 39 40 41 42 43 44 45 46 47 48 49 50
513
AXUS43 KGID 170202
MISGRI

GID CWA HOURLY WEATHER ROUNDUP
NATIONAL WEATHER SERVICE HASTINGS NE
800 PM CST MON JAN 16 2017

NOTE: "FAIR" INDICATES FEW OR NO CLOUDS BELOW 12,000 FEET WITH NO
SIGNIFICANT WEATHER AND/OR OBSTRUCTIONS TO VISIBILITY.

...SOUTH CENTRAL NEBRASKA...

CITY           SKY/WX    TMP DP  RH WIND       PRES   REMARKS
GRAND ISLAND   LGT SNOW N/A N/A N/A N12       29.99R
HASTINGS       CLOUDY    32  29  88 N18       30.00R WCI  20
KEARNEY        CLOUDY    34  28  80 CALM      30.01S
ORD            CLOUDY    32  23  69 N15       30.01R WCI  22
YORK           CLOUDY    32  32 100 CALM      29.98R FOG
AURORA         CLOUDY    32  32 100 NW5       29.98S FOG     WCI  27
LEXINGTON      CLOUDY    35  30  82 NW10G16   30.03S WCI  27
HOLDREGE       CLOUDY    33  31  92 CALM      30.01S
HEBRON         CLOUDY    32  32  99 N5        29.99R WCI  28

...NEBRASKA PANHANDLE...

CITY           SKY/WX    TMP DP  RH WIND       PRES   REMARKS
CHADRON        CLEAR     21  14  74 S6        30.11S WCI  13
ALLIANCE       CLOUDY    22  17  81 NW3       30.09R
SCOTTSBLUFF    CLEAR     30  19  63 NW6       30.11R WCI  24
SIDNEY         CLOUDY    33  23  66 N13       30.08S WCI  24

...WESTERN AND NORTH CENTRAL NEBRASKA...

CITY           SKY/WX    TMP DP  RH WIND       PRES   REMARKS
VALENTINE      CLOUDY    22  14  71 W3        30.06S
AINSWORTH      CLOUDY    25  18  76 NW8       30.04S WCI  16
ONEILL         CLOUDY    26  19  75 NW16G23   30.02S WCI  14
BROKEN BOW     CLOUDY    32  26  78 N13       30.02R WCI  22
IMPERIAL       CLOUDY    34  26  72 NW15      30.07R WCI  24
NORTH PLATTE   CLOUDY    34  24  67 NW10      30.05R WCI  26
MCCOOK         CLOUDY    34  31  88 W10       30.05S WCI  26

...EASTERN NEBRASKA...

CITY           SKY/WX    TMP DP  RH WIND       PRES   REMARKS
NORFOLK        CLOUDY    30  26  85 N17       29.98R WCI  18
SO SIOUX CITY  CLOUDY    34  32  92 N10       29.97S WCI  26
TEKAMAH        LGT RAIN  33  31  92 N13       29.96R FOG     WCI  24
COLUMBUS       CLOUDY    32  28  86 CALM      29.98S
ALBION         CLOUDY    31  27  84 NW7       29.99R FOG     WCI  25
OMAHA EPPLEY   CLOUDY    34  30  85 NW13      29.95R WCI  25
MILLARD        CLOUDY    35  34  94 NW5       29.95R WCI  31
LINCOLN        LGT RAIN  33  32  96 N14       29.98R FOG     WCI  23
NEBRASKA CITY  CLOUDY    33  33 100 N10       29.93R FOG     WCI  25
BEATRICE       CLOUDY    33  33  98 N6        29.95S WCI  28
FALLS CITY     CLOUDY    34  33  96 NW9       29.91R WCI  27

...NORTHERN KANSAS...

CITY           SKY/WX    TMP DP  RH WIND       PRES   REMARKS
GOODLAND       CLOUDY    33  28  81 NW13      30.06R WCI  24
HILL CITY      CLOUDY    34  33  96 NW9       30.04R WCI  27
NORTON         CLOUDY    34  28  80 NW9       30.03R WCI  26
PHILLIPSBURG   CLOUDY    34  34 100 CALM      30.02S
SMITH CENTER   CLOUDY    32  30  93 NW12      30.01S WCI  23
HAYS           CLOUDY    34  32  92 NW9       30.03R WCI  27
RUSSELL        CLOUDY    33  32  96 NW7       30.00R WCI  27
CONCORDIA      CLOUDY    33  32  96 N12       29.97S WCI  24
SALINA         CLOUDY    34  32  92 NW7         N/A  WCI  28
TOPEKA         CLOUDY    38  34  85 W10       29.93R WCI  31



USA.gov is the U.S. government's official web portal to all federal, state and local government web resources and services.